[[{"header":{"parameterUnit":"m.s-1","parameterCategory":1,"la1":30.2991,"la2":30.254,"lo1":-89.0895,"lo2":-89.0444,"dy":0.0017,"dx":0.0017,"nx":28,"ny":28,"refTime":"2023-09-18T09:00:00:Z","depth":0,"parameterNumber":2,"parameterNumberName":"U-component_of_WINDS"},"data":[0,0,0,0,0,0,0,0,0,0,0,0,0,0,0,0,0,0,0,0,0,0,0,0,0,0,0,0,0,0,0,0,0,0,0,0,0,0,0,0,0,0,0,0,0,0,0,0,0,0,0,0,0,0,0,0,0,0,-3.5975,-3.5975,0,-3.5994,-3.5994,-3.5995,-3.5946,-3.5945,-3.5943,-3.5942,-3.5959,-3.596,-3.5962,0,0,0,0,0,0,0,0,0,0,0,0,0,-3.5895,-3.5897,-3.5975,-3.5975,-3.5975,-3.5994,-3.5994,-3.5995,-3.5947,-3.5945,-3.5943,-3.5941,-3.5958,-3.596,-3.5962,0,0,0,0,0,0,0,0,0,0,0,0,0,-3.5923,-3.5897,-3.5975,-3.5954,-3.5952,-3.5994,-3.5994,-3.5995,-3.5947,-3.5945,-3.5942,-3.594,-3.5957,-3.596,-3.5963,-3.6025,0,0,-3.5971,-3.5972,0,0,0,0,0,0,0,0,-3.5922,-3.5926,-3.5957,-3.5955,-3.5954,-3.5966,-3.5972,-3.6005,-3.5948,-3.5949,-3.5942,-3.5939,-3.5963,-3.5965,-3.5973,-3.6026,-3.6026,-3.5971,-3.5973,-3.5974,-3.5975,0,0,0,0,0,0,0,-3.592,-3.5925,-3.5982,-3.5957,-3.5955,-3.5943,-3.5944,-3.5978,-3.5968,-3.5949,-3.5945,-3.5948,-3.5961,-3.5971,-3.5973,-3.6027,-3.5971,-3.5974,-3.5975,-3.5977,-3.6131,-3.6133,0,0,0,0,0,0,-3.5921,-3.5924,-3.5982,-3.5983,-3.5932,-3.5946,-3.5948,-3.5964,-3.5968,-3.5966,-3.595,-3.5946,-3.5967,-3.597,-3.5974,-3.6045,-3.5974,-3.5977,-3.5978,-3.6128,-3.6131,-3.6134,0,0,0,0,0,0,-3.592,-3.5927,-3.5981,-3.5953,-3.5959,-3.595,-3.5968,-3.5966,-3.5975,-3.5969,-3.5966,-3.5962,-3.5965,-3.597,-3.6013,-3.6045,-3.5978,-3.5981,-3.6126,-3.6129,-3.6133,-3.619,0,0,0,0,0,0,-3.5917,-3.5926,-3.595,-3.5954,-3.596,-3.602,-3.5971,-3.5968,-3.598,-3.5975,-3.5979,-3.5977,-3.5964,-3.6009,-3.6015,-3.6048,-3.5983,-3.6122,-3.6127,-3.6132,-3.6185,-3.6195,-3.6204,0,0,0,0,0,-3.5915,-3.5965,-3.5952,-3.5959,-3.599,-3.6022,-3.6026,-3.601,-3.5983,-3.6006,-3.6003,-3.5977,-3.6042,-3.6014,-3.6021,-3.6054,-3.612,-3.6126,-3.6131,-3.6181,-3.6193,-3.6204,0,0,0,0,0,0,-3.5963,-3.5965,-3.595,-3.6003,-3.6013,-3.6014,-3.6043,-3.6024,-3.6041,-3.6035,-3.6014,-3.6016,-3.6062,-3.6063,-3.6032,-3.6115,-3.6076,-3.6083,-3.6111,-3.6123,-3.6132,-3.6129,-3.5985,0,0,0,0,0,-3.5981,-3.6008,-3.6007,-3.6054,-3.606,-3.6051,-3.6065,-3.6052,-3.6061,-3.6064,-3.6064,-3.6073,-3.6095,-3.611,-3.613,-3.6187,-3.6186,-3.6214,-3.6223,-3.6231,-3.6236,-3.6265,-3.6276,-3.6152,-3.6152,-3.6152,0,0,-3.6016,-3.602,-3.6038,-3.6064,-3.607,-3.6098,-3.6055,-3.6085,-3.6105,-3.6069,-3.6108,-3.6109,-3.6118,-3.6168,-3.619,-3.617,-3.6271,-3.6238,-3.6244,-3.6245,-3.6272,-3.6283,-3.6294,-3.6156,-3.6155,-3.6155,0,0,-3.6093,-3.61,-3.6139,-3.6147,-3.6158,-3.6152,-3.6162,-3.6167,-3.6166,-3.6206,-3.618,-3.6203,-3.6242,-3.6249,-3.6258,-3.6342,-3.6318,-3.6349,-3.6396,-3.6425,-3.6434,-3.6443,-3.647,-3.6481,-3.6355,-3.6355,-3.6355,0,-3.6134,-3.6175,-3.6161,-3.6194,-3.6206,-3.6177,-3.6216,-3.6224,-3.6241,-3.6249,-3.6228,-3.6277,-3.6281,-3.6331,-3.6352,-3.6361,-3.637,-3.6346,-3.6434,-3.6443,-3.645,-3.6476,-3.6487,-3.6359,-3.6358,-3.6358,-3.6358,0,-3.6225,-3.6254,-3.6285,-3.6302,-3.6318,-3.6354,-3.6345,-3.6363,-3.635,-3.6346,-3.6388,-3.6393,-3.6413,-3.6425,-3.6412,-3.6474,-3.6461,-3.6438,-3.6398,-3.6466,-3.649,-3.65,-3.6364,-3.6362,-3.6361,-3.636,0,0,-3.6328,-3.6341,-3.6352,-3.636,-3.6371,-3.6393,-3.6428,-3.645,-3.6464,-3.6478,-3.6505,-3.6541,-3.6519,-3.653,-3.6518,-3.6544,-3.6607,-3.6517,-3.6517,-3.6531,-3.6673,-3.6688,-3.67,-3.6594,-3.6596,-3.6597,-3.6671,0,-3.6402,-3.6463,-3.6453,-3.6511,-3.6537,-3.6512,-3.6542,-3.6552,-3.6551,-3.6572,-3.6571,-3.6595,-3.6566,-3.6572,-3.6597,-3.6594,-3.6635,-3.6589,-3.6617,-3.6618,-3.6611,-3.6713,-3.6728,-3.6797,-3.6681,-3.6682,-3.6684,0,-3.6495,-3.6514,-3.6575,-3.6583,-3.6594,-3.6621,-3.664,-3.6662,-3.6673,-3.667,-3.6683,-3.6668,-3.6702,-3.6665,-3.6711,-3.6681,-3.6692,-3.6693,-3.6695,-3.6694,-3.6652,-3.6711,-3.682,-3.6829,-3.6699,-3.6697,-3.6696,0,-3.6561,-3.6602,-3.6643,-3.6651,-3.6663,-3.6682,-3.6688,-3.6697,-3.6711,-3.6728,-3.6737,-3.6758,-3.6768,-3.6784,-3.6774,-3.6749,-3.6822,-3.6784,-3.6818,-3.6818,-3.6831,-3.6829,-3.6939,-3.6845,-3.6845,-3.6844,-3.6844,0,-3.6642,-3.668,-3.6673,-3.6698,-3.674,-3.6729,-3.677,-3.6772,-3.6782,-3.6806,-3.6787,-3.681,-3.6798,-3.682,-3.6813,-3.6851,-3.6857,-3.6855,-3.6851,-3.6854,-3.6854,-3.6858,-3.6851,-3.6847,-3.6847,-3.6846,-3.6846,0,-3.672,-3.6718,-3.6761,-3.677,-3.6773,-3.6803,-3.681,-3.6833,-3.6832,-3.6863,-3.687,-3.6867,-3.6893,-3.6886,-3.6914,-3.6909,-3.6957,-3.6949,-3.6953,-3.6949,-3.6982,-3.6978,-3.7096,-3.711,-3.701,-3.7011,-3.7011,0,-3.677,-3.6799,-3.6811,-3.6827,-3.6835,-3.6861,-3.6875,-3.6867,-3.6882,-3.6899,-3.692,-3.6944,-3.6962,-3.7005,-3.7004,-3.7026,-3.7016,-3.7057,-3.7019,-3.7021,-3.7013,-3.701,-3.7012,-3.7062,-3.7063,-3.7064,-3.7065,0,-3.6858,-3.6856,-3.6878,-3.6901,-3.692,-3.6936,-3.6951,-3.6965,-3.6958,-3.6977,-3.7004,-3.7018,-3.7048,-3.7071,-3.7091,-3.7096,-3.7079,-3.7078,-3.7086,-3.7087,-3.7086,-3.7084,-3.6969,-3.7074,-3.7073,-3.7072,-3.7072,-3.7072,-3.6921,-3.6945,-3.6958,-3.6984,-3.6995,-3.701,-3.7033,-3.7035,-3.7058,-3.7081,-3.7076,-3.7106,-3.7117,-3.7143,-3.715,-3.7173,-3.7158,-3.717,-3.7173,-3.7175,-3.7178,-3.7087,-3.7177,-3.7177,-3.7177,-3.7176,-3.7176,0,-3.7005,-3.7013,-3.7038,-3.706,-3.7081,-3.7067,-3.7083,-3.71,-3.7127,-3.7141,-3.716,-3.7191,-3.7215,-3.7218,-3.724,-3.7258,-3.725,-3.7264,-3.726,-3.7261,-3.7192,-3.7181,-3.7269,-3.7269,-3.7269,-3.7269,-3.7269,-3.7269,-3.7051,-3.7091,-3.7091,-3.7136,-3.7144,-3.7174,-3.7184,-3.7198,-3.7209,-3.7244,-3.7264,-3.7267,-3.7277,-3.73,-3.7321,-3.7321,-3.7329,-3.7344,-3.7341,-3.7275,-3.7266,-3.7257,-3.7246,-3.7347,-3.7347,-3.7408,-3.7408,-3.7409]},{"header":{"parameterUnit":"m.s-1","parameterCategory":1,"la1":30.2991,"la2":30.254,"lo1":-89.0895,"lo2":-89.0444,"dy":0.0017,"dx":0.0017,"nx":28,"ny":28,"refTime":"2023-09-18T09:00:00:Z","depth":0,"parameterNumber":3,"parameterNumberName":"V-component_of_WINDS"},"data":[0,0,0,0,0,0,0,0,0,0,0,0,0,0,0,0,0,0,0,0,0,0,0,0,0,0,0,0,0,0,0,0,0,0,0,0,0,0,0,0,0,0,0,0,0,0,0,0,0,0,0,0,0,0,0,0,0,0,2.341,2.3411,0,2.3473,2.3473,2.3474,2.3536,2.3536,2.3537,2.3538,2.3597,2.3597,2.3598,0,0,0,0,0,0,0,0,0,0,0,0,0,2.334,2.3341,2.341,2.3411,2.3411,2.3473,2.3473,2.3474,2.3535,2.3536,2.3537,2.3538,2.3596,2.3597,2.3598,0,0,0,0,0,0,0,0,0,0,0,0,0,2.3383,2.3341,2.341,2.3449,2.3454,2.3472,2.3473,2.3475,2.3535,2.3536,2.3538,2.3539,2.3596,2.3597,2.3598,2.3581,0,0,2.3602,2.3602,0,0,0,0,0,0,0,0,2.3381,2.3386,2.3443,2.3447,2.3451,2.3498,2.347,2.351,2.3535,2.3504,2.3538,2.3539,2.3562,2.3566,2.3575,2.3584,2.3586,2.3602,2.3603,2.3603,2.3604,0,0,0,0,0,0,0,2.3378,2.3383,2.3435,2.3444,2.3449,2.3463,2.3471,2.3478,2.3525,2.3507,2.3511,2.3518,2.3565,2.3574,2.3577,2.3587,2.3602,2.3603,2.3604,2.3604,2.3588,2.3587,0,0,0,0,0,0,2.3369,2.338,2.3433,2.3436,2.3419,2.3464,2.3472,2.3481,2.3525,2.3533,2.3517,2.3521,2.3571,2.3576,2.3579,2.3564,2.3603,2.3604,2.3605,2.3589,2.3587,2.3586,0,0,0,0,0,0,2.3367,2.3373,2.343,2.341,2.3418,2.3463,2.3474,2.3482,2.3491,2.3533,2.3542,2.3518,2.3572,2.3578,2.3581,2.3566,2.3605,2.3606,2.359,2.3588,2.3587,2.3531,0,0,0,0,0,0,2.3365,2.3372,2.3366,2.3409,2.3419,2.3431,2.3473,2.3482,2.3494,2.3499,2.3536,2.3544,2.3574,2.3579,2.3582,2.3569,2.3607,2.3592,2.3589,2.3587,2.3534,2.3527,2.3521,0,0,0,0,0,2.3362,2.3346,2.3366,2.3372,2.3413,2.343,2.3436,2.3473,2.3492,2.3487,2.3515,2.3542,2.3568,2.3579,2.3583,2.3569,2.3593,2.359,2.3588,2.3537,2.3528,2.3521,0,0,0,0,0,0,2.3297,2.3352,2.3375,2.3372,2.3397,2.3441,2.3434,2.3462,2.348,2.3484,2.3527,2.3535,2.3534,2.3552,2.3564,2.3557,2.3584,2.3582,2.3544,2.3537,2.3531,2.3525,2.3608,0,0,0,0,0,2.3283,2.3294,2.3341,2.3334,2.3346,2.3388,2.3397,2.3424,2.345,2.346,2.3488,2.351,2.3524,2.3532,2.3546,2.3538,2.3547,2.3531,2.3524,2.3519,2.3516,2.3515,2.3508,2.3578,2.3578,2.3578,0,0,2.3252,2.3284,2.3288,2.3322,2.3344,2.3354,2.3396,2.3404,2.3411,2.346,2.3466,2.3488,2.3516,2.3514,2.3515,2.353,2.35,2.3516,2.3511,2.3511,2.3511,2.3505,2.3499,2.3576,2.3576,2.3576,0,0,2.3202,2.3227,2.3226,2.3248,2.3282,2.3311,2.3311,2.3352,2.3369,2.3377,2.3415,2.3424,2.3445,2.3465,2.3478,2.344,2.3466,2.3443,2.341,2.3408,2.3402,2.3398,2.3384,2.3379,2.3441,2.3441,2.3441,0,2.3159,2.3177,2.322,2.3227,2.3242,2.329,2.3289,2.3308,2.3344,2.3352,2.3369,2.34,2.3422,2.3427,2.3418,2.3427,2.3427,2.3438,2.34,2.3396,2.3392,2.338,2.3375,2.3438,2.3438,2.3438,2.3439,0,2.3123,2.3135,2.3129,2.3167,2.3181,2.3183,2.3226,2.3235,2.3262,2.3289,2.3296,2.3326,2.3349,2.3352,2.3376,2.336,2.3369,2.3392,2.342,2.3382,2.3371,2.3367,2.3433,2.3435,2.3435,2.3436,0,0,2.303,2.3095,2.3092,2.311,2.3154,2.3163,2.3168,2.3193,2.32,2.3224,2.323,2.3249,2.3273,2.3287,2.3315,2.3314,2.3283,2.3338,2.3339,2.3326,2.3267,2.3249,2.3243,2.3302,2.3301,2.33,2.3265,0,2.2986,2.3001,2.3042,2.3043,2.3055,2.3104,2.3108,2.3135,2.3162,2.3175,2.3204,2.3217,2.3247,2.3256,2.3257,2.3286,2.3271,2.329,2.3306,2.3306,2.3296,2.3237,2.3217,2.3182,2.3261,2.3261,2.326,0,2.2937,2.2962,2.2965,2.3011,2.3017,2.3021,2.3049,2.3061,2.3093,2.3113,2.3131,2.3164,2.3172,2.32,2.3212,2.3223,2.3233,2.3248,2.3248,2.325,2.3279,2.3237,2.3172,2.3166,2.3254,2.3254,2.3255,0,2.2868,2.2902,2.291,2.2924,2.2978,2.298,2.3002,2.3035,2.3049,2.3073,2.3082,2.3105,2.3117,2.3135,2.3173,2.3189,2.318,2.3211,2.3196,2.3195,2.319,2.319,2.3125,2.3198,2.3198,2.3198,2.3198,0,2.2815,2.2815,2.288,2.2884,2.2886,2.2934,2.2934,2.2961,2.2991,2.3001,2.3044,2.3052,2.3102,2.3116,2.3145,2.3151,2.3156,2.3172,2.3179,2.3167,2.3165,2.3173,2.3176,2.3196,2.3197,2.3197,2.3197,0,2.2738,2.2781,2.2793,2.2845,2.2858,2.2857,2.2901,2.2906,2.2938,2.2949,2.2955,2.3002,2.3021,2.3062,2.309,2.311,2.3109,2.3123,2.3098,2.3103,2.3086,2.3086,2.3022,2.3017,2.3093,2.3093,2.3092,0,2.27,2.2702,2.2755,2.2767,2.2788,2.2805,2.282,2.2868,2.2882,2.2921,2.2922,2.2945,2.2965,2.2993,2.3029,2.3052,2.3066,2.3043,2.307,2.3059,2.3066,2.3065,2.3066,2.3036,2.3035,2.3034,2.3033,0,2.2628,2.2651,2.2673,2.2702,2.272,2.2745,2.2772,2.2778,2.2833,2.2846,2.2868,2.2884,2.2916,2.2938,2.2967,2.2988,2.3019,2.3025,2.3023,2.301,2.2996,2.3003,2.3081,2.3026,2.3026,2.3027,2.3027,2.3028,2.257,2.2575,2.2614,2.2637,2.2664,2.2689,2.2698,2.2732,2.2752,2.2783,2.281,2.2829,2.2864,2.2907,2.2927,2.2942,2.2957,2.2953,2.2953,2.2951,2.2946,2.2995,2.2947,2.2947,2.2948,2.2948,2.2948,0,2.2501,2.253,2.2551,2.259,2.2608,2.264,2.2673,2.2685,2.2703,2.2733,2.2754,2.278,2.2803,2.2842,2.2868,2.2873,2.2888,2.2878,2.2877,2.2882,2.293,2.293,2.2865,2.2865,2.2865,2.2865,2.2865,2.2865,2.2467,2.2478,2.2506,2.2531,2.2559,2.2581,2.2597,2.2621,2.2646,2.2674,2.2694,2.2721,2.2756,2.2785,2.2807,2.2819,2.2826,2.2811,2.2826,2.2871,2.2878,2.2886,2.2885,2.2812,2.2812,2.2777,2.2777,2.2776]}]]